Location: Newark
(50.8547°N, 2.7256°E)
Time: 19:18:40
(UTC+00:00)

Envisat - Pass Details

Date: 31 January 2020
Orbit: 764 x 766 km, 98.1° (Epoch: 19 February)

Event Time Altitude Azimuth Distance (km) Brightness Sun altitude
Rises 17:06:30 0° 155° (SSE) 3,222 6.2 -4.9°
Reaches altitude 10° 17:08:48 10° 152° (SSE) 2,300 5.4 -5.3°
Maximum altitude 17:13:49 67° 71° (ENE) 835 3.0 -6.0°
Drops below altitude 10° 17:18:53 10° 350° (N) 2,315 5.4 -6.8°
Sets 17:21:12 0° 348° (NNW) 3,246 6.2 -7.1°
